{"data":{"norad_id":56466,"epoch":"2026-09-20T14:10:47.063136Z","epoch_age_seconds":104317,"freshness":"FRESH","line1":"1 56466U 23064U   26263.59082249  .00000068  00000+0  13512-4 0  9999","line2":"2 56466  70.0015  12.9077 0003153 270.0835  89.9963 14.98330654184432","mean_motion":14.98330654,"eccentricity":0.0003153,"inclination_deg":70.0015,"raan_deg":12.9077,"arg_perigee_deg":270.0835,"mean_anomaly_deg":89.9963,"bstar":1.3512e-5,"rev_number":18443,"period_min":96.106957176356,"perigee_km":569.86247332326,"apogee_km":574.24526368494,"semimajor_km":6950.1908685041,"source":"CELESTRAK","updated_at":"2026-09-21T09:00:33.444705Z"}}